Location: Little Chart
(51.1667°N, 0.7833°E)
Time: 22:44:00
(UTC+00:00)

Daily predictions for brighter satellites

Satellite Brightness Start Highest point End
(mag) Time Altitude Azimuth Time Altitude Azimuth Time Altitude Azimuth
Cosmos 2098 Rocket 3.6 16:19:41 10° SSE 16:23:56 48° E 16:28:52 10° NNE
USA 290 2.4 16:21:35 10° NNW 16:24:51 80° WSW 16:28:06 10° SSE
Meteor 1-27 4.5 16:19:26 10° SSW 16:25:15 82° WNW 16:31:01 10° NNE
Cosmos 2208 Rocket 4.3 16:20:11 10° NNW 16:25:21 74° WSW 16:30:32 10° SSE
Cosmos 1782 2.7 16:23:18 10° S 16:26:49 55° E 16:30:21 10° NNE
Cosmos 2227 Rocket 2.3 16:23:13 10° NNW 16:28:47 54° NE 16:34:19 10° SE
Meteor 1-28 Rocket 3.8 16:26:42 10° NNE 16:29:43 30° E 16:32:41 10° SSE
Cosmos 2369 Rocket 4.0 16:27:52 10° W 16:32:19 23° NW 16:36:48 10° NNE
CBERS-1 4.0 16:28:08 10° SSE 16:33:12 67° ENE 16:38:17 10° N
CENTAUR R/B 3.3 16:34:49 10° WSW 16:40:40 48° NNW 16:48:03 10° NE
Cosmos 1697 Rocket 3.2 16:36:37 10° S 16:41:48 41° ESE 16:47:02 10° NE
Cosmos 1626 Rocket 4.0 16:38:17 10° NNW 16:42:35 65° W 16:46:49 10° S
Cosmos 2360 4.3 16:37:35 10° SSW 16:43:18 80° ESE 16:49:04 10° NNE
CZ-2D R/B 3.8 16:42:25 10° ESE 16:45:02 24° ENE 16:47:39 10° N
Cosmos 2266 Rocket 3.9 16:42:14 10° N 16:48:22 66° ENE 16:54:22 10° SSE
Cosmos 1656 3.9 16:45:29 10° SW 16:51:06 73° WNW 16:56:50 10° NNE
Cosmos 2228 4.0 16:48:06 10° SSW 16:52:11 46° WNW 16:56:18 10° N
Cosmos 1606 Rocket 4.1 16:49:04 10° SSE 16:53:09 38° E 16:57:16 10° NNE
Cosmos 1503 Rocket 4.0 16:50:07 10° SSW 16:55:19 69° ESE 17:00:29 10° NNE
Lacrosse 5 rocket 2.0 16:52:45 10° WNW 16:56:11 33° N 16:58:51 14° NE
CZ-4C R/B 3.4 16:51:46 10° NW 16:58:36 67° SW 17:07:06 10° SSE
UNK 4.0 16:54:13 10° NNE 16:58:39 46° E 17:03:01 10° S
Cosmos 1484 Rocket 3.1 16:56:48 10° S 17:00:15 59° WSW 17:03:43 10° NNW
Cosmos 1743 3.2 16:57:43 10° NNW 17:00:53 52° W 17:04:02 10° S
Thor Agena Rocket 3.5 16:56:18 10° SSE 17:01:30 84° ENE 17:06:40 10° NNW
Cosmos 1544 Rocket 4.0 16:58:09 10° SSW 17:02:32 64° WNW 17:06:57 10° N
IRS-P3 4.4 16:59:14 10° SE 17:04:15 45° ENE 17:09:18 10° N
NOSS 2-3 (D) 4.1 17:01:30 10° S 17:04:47 31° ESE 17:07:03 17° ENE
NOSS 2-3 (E) 4.0 17:02:05 10° S 17:05:24 33° ESE 17:07:43 17° ENE
Cosmos 1354 Rocket 4.1 17:01:11 10° S 17:06:20 61° ESE 17:11:31 10° NNE
IGS 5A 3.8 17:03:48 10° S 17:07:44 66° WSW 17:11:43 10° NNW
NOSS 2-2 (D) 3.9 17:04:58 10° WSW 17:07:53 33° NW 17:10:11 13° NNE
Cosmos 1777 Rocket 4.1 17:03:17 10° SSW 17:08:33 84° WNW 17:13:49 10° NNE
Cosmos 2151 3.4 17:04:50 10° NNW 17:08:58 66° W 17:13:06 10° S
Cosmos-2242 4.3 17:07:03 10° SE 17:10:08 20° E 17:11:24 18° ENE
USA 238 DEB 4.2 17:04:44 10° S 17:10:13 36° ESE 17:14:48 16° ENE
USA 238 4.2 17:04:52 10° S 17:10:21 36° ESE 17:14:54 16° ENE
MOS 1 Rocket 3.6 17:06:17 10° SE 17:11:09 53° ENE 17:16:16 10° N
Gbstr 26 Del rocket 3.2 17:10:04 10° SW 17:14:04 49° SSE 17:16:29 19° E
Cosmos 1726 Rocket 3.9 17:11:13 10° SSE 17:15:39 48° E 17:20:03 10° NNE
IRIDIUM 104 4.4 17:11:41 10° N 17:16:56 83° W 17:22:09 10° S
ERS-1 4.4 17:12:18 10° SSE 17:17:14 63° ENE 17:22:08 10° N
Cosmos 2082 4.0 17:11:47 10° NNW 17:17:16 45° NE 17:22:45 10° ESE
USA 215 3.6 17:12:07 15° ENE 17:17:26 56° N 17:23:48 10° W
AQUARIUS 4.1 17:14:23 10° SSE 17:18:42 59° ENE 17:23:03 10° N
Cosmos 1805 3.9 17:17:07 10° NNE 17:19:58 25° ENE 17:22:48 10° SE
SMAP 3.1 17:15:22 10° SSE 17:20:01 83° WSW 17:24:43 10° NNW
Cosmos 2297 Rocket 4.0 17:15:51 10° NW 17:20:56 35° WSW 17:25:58 10° S
GEOS 3 Rocket 3.9 17:19:09 17° NE 17:23:11 53° SE 17:28:26 10° SSW
Landsat 7 3.7 17:19:29 10° SSE 17:24:09 86° ENE 17:28:50 10° NNW
Cosmos 923 Rocket 4.5 17:21:30 10° NNW 17:26:20 37° NE 17:31:08 10° ESE
YAOGAN 1 3.3 17:23:16 10° SE 17:26:59 30° ENE 17:30:44 10° N
Okean 1-7 Rocket 4.2 17:25:35 10° NNW 17:29:54 58° W 17:34:11 10° S
Cosmos 990 Rocket 3.9 17:28:35 10° SSW 17:33:42 84° ESE 17:38:14 14° NNE
Cosmos 1461 3.4 17:30:05 10° WSW 17:33:53 48° NW 17:36:23 20° NNE
NOSS 2-2 (E) 4.3 17:31:19 10° W 17:34:00 26° NNW 17:35:28 18° N
SL-16 R/B 3.1 17:28:37 10° NNE 17:34:44 59° WNW 17:40:47 10° SW
CZ-2D R/B 3.8 17:31:07 10° SE 17:35:01 40° ENE 17:38:53 10° N
SKYMED 2 4.2 17:35:14 26° NE 17:36:52 34° E 17:40:50 10° SSE
COSMOS 2455 4.2 17:34:17 10° SSE 17:38:23 19° ESE 17:38:36 19° ESE
Okean 1 4.3 17:36:13 10° SSE 17:38:21 24° ESE 17:38:21 24° ESE
Cosmos 1844 Rocket 3.4 17:39:09 10° NNW 17:44:14 32° NE 17:45:49 28° ENE
Cosmos 2219 3.1 17:38:46 10° NNW 17:44:32 77° ENE 17:50:17 10° SE
SJ-6F 4.3 17:41:22 10° SSE 17:45:22 90° WSW 17:49:27 10° NNW
Cosmos 1980 Rocket 2.3 17:40:33 10° S 17:46:05 58° ESE 17:49:21 24° NE
Cosmos 1953 Rocket 3.6 17:42:25 10° N 17:46:54 87° WSW 17:51:21 10° S
Aureole 1 Rocket 3.5 17:43:29 10° S 17:48:05 58° ESE 17:51:47 21° NE
Meteor 1-26 Rocket 4.3 17:44:19 10° SSE 17:49:26 46° E 17:52:48 20° NNE
PSLV R/B 3.7 17:49:58 33° ESE 17:51:07 41° ENE 17:54:57 10° N
Cosmos 2263 Rocket 2.5 17:47:02 10° NNW 17:52:42 70° WSW 17:58:21 10° SSE
ARIANE 5 R/B 3.2 17:48:11 10° S 17:53:11 58° WSW 17:58:17 10° NNW
SL-19 R/B 4.3 17:48:47 10° SE 17:54:05 54° ENE 17:59:44 10° N
NOSS 3-2 (A) 4.4 17:51:38 10° W 17:56:43 37° NNW 18:00:32 20° NNE
BREEZE-M DEB (TANK) 4.1 17:54:27 10° SSW 17:57:11 20° SSE 17:57:13 20° SSE
Cosmos 1680 Rocket 3.7 17:53:02 10° NNW 17:58:06 48° ENE 18:00:24 29° ESE
COSMO-SKYMED 1 3.3 17:59:08 32° SE 17:59:08 32° SE 18:02:01 10° SSE
BREEZE-M DEB (TANK) 4.0 17:55:37 10° W 17:59:06 67° S 18:06:53 17° ESE
NOSS 3-2 (C) 3.7 17:54:22 10° WSW 17:59:33 55° NW 18:03:20 23° NE
NOAA 15 4.5 17:56:09 10° SSE 18:01:25 70° ENE 18:06:41 10° N
Cosmos 1076 Rocket 4.1 17:57:16 10° NNW 18:01:30 57° W 18:05:44 10° S
Meteor 2-10 4.1 17:56:19 10° NNW 18:01:44 87° WSW 18:07:18 10° S
NOAA 6 4.1 17:58:29 10° SE 18:03:24 50° ENE 18:08:20 10° N
Cosmos 2369 4.0 17:58:21 10° S 18:03:47 47° ESE 18:05:20 38° ENE
Cosmos 1943 Rocket 4.3 18:02:57 10° N 18:04:10 11° NNE 18:04:10 11° NNE
Resurs 01 Rocket 3.8 18:11:53 13° N 18:11:53 13° N 18:12:21 10° N
Cosmos 1655 Rocket 4.5 18:04:14 10° NNW 18:10:22 62° W 18:16:29 10° S
USA 81 4.1 18:05:37 10° N 18:10:55 82° W 18:16:11 10° S
Cosmos 44 Rocket 3.6 18:06:20 10° NW 18:11:19 49° NE 18:11:53 46° ENE
Cosmos 2227 Rocket 4.1 18:07:39 10° NW 18:12:33 31° WSW 18:17:27 10° SSW
SPOT 1/Viking Rocket 3.8 18:12:02 10° S 18:17:13 72° WSW 18:22:27 10° NNW
Cosmos 2058 Rocket 3.2 18:19:56 10° SSW 18:24:24 76° WNW 18:26:26 32° N
Cosmos 1697 Rocket 3.6 18:20:25 10° WSW 18:25:45 43° NW 18:29:16 20° NNE
OceanSat 1 rocket 4.4 18:22:05 10° SSE 18:26:50 82° ENE 18:31:33 10° NNW
USA 281 4.4 18:28:12 24° NNE 18:28:12 24° NNE 18:32:28 10° NNW
CENTAUR R/B 3.9 18:26:58 10° WNW 18:33:04 33° N 18:35:36 27° NNE
Cosmos 2333 Rocket 4.3 18:29:05 10° SSE 18:29:35 12° SSE 18:29:35 12° SSE
Lacrosse 5 rocket 2.6 18:30:19 10° WNW 18:32:26 27° NNW 18:32:26 27° NNW
Meteor 2-11 Rocket 4.3 18:27:36 10° N 18:33:49 83° E 18:39:59 10° SSE
Cosmos 2278 Rocket 4.3 18:31:15 10° N 18:32:43 12° N 18:32:43 12° N
NOSS 2-3 (C) 3.9 18:31:56 10° WSW 18:34:52 48° WNW 18:34:52 48° WNW
Meteor 1-14 Rocket 4.1 18:32:14 10° N 18:38:02 70° ENE 18:39:09 55° SE
Resurs 1-3 4.2 18:39:55 10° S 18:44:07 54° W 18:48:22 10° NNW
Cosmos-2242 3.8 18:42:43 10° SSW 18:46:50 48° WNW 18:47:46 40° NW
Cosmos 1844 3.7 18:49:45 10° NNW 18:54:37 65° N 18:54:37 65° N
Cosmos 1898 Rocket 3.9 18:50:48 10° SW 18:55:53 59° WNW 18:56:44 52° NNW
Cosmos 2112 Rocket 4.1 18:54:38 10° NNW 18:59:47 73° WSW 18:59:47 73° WSW
USA 215 3.3 18:59:28 59° NE 19:00:01 61° NNE 19:06:28 10° WNW
Gbstr 26 Del rocket 4.4 18:56:21 10° W 18:58:31 31° W 18:58:31 31° W
USA 238 DEB 3.8 18:54:34 10° WSW 19:00:45 65° NW 19:02:15 51° NNE
USA 238 3.8 18:54:39 10° WSW 19:00:52 66° NW 19:02:21 52° NNE
GEOS 3 Rocket 4.4 19:00:12 42° N 19:01:07 47° NW 19:06:14 10° WSW
Cosmos 1553 Rocket 4.3 18:55:10 10° SSW 19:01:19 67° WNW 19:07:32 10° N
YAOGAN 1 4.1 18:58:53 10° SSW 19:02:47 34° W 19:06:41 10° NNW
BREEZE-M DEB (TANK) 4.1 19:01:42 10° SW 19:06:16 37° S 19:06:16 37° S
Cosmos 1709 Rocket 4.4 19:04:53 10° N 19:09:09 48° N 19:09:09 48° N
Cosmos 1937 Rocket 4.0 19:06:14 10° SW 19:10:58 57° W 19:10:58 57° W
Meteor 2-6 Rocket 4.3 19:06:00 10° SSW 19:11:38 75° W 19:11:38 75° W
Cosmos 2227 4.4 19:07:02 10° NW 19:12:30 68° WSW 19:12:30 68° WSW
SL-16 R/B 3.7 19:09:03 10° SSW 19:11:20 25° S 19:11:20 25° S
Cosmos 1745 Rocket 4.1 19:09:42 10° NNW 19:15:51 71° W 19:21:56 10° S
COSMOS 2455 3.4 19:17:27 10° SSW 19:21:46 50° SSW 19:21:46 50° SSW
Cosmos 1844 Rocket 3.3 19:22:53 10° NW 19:27:30 52° WNW 19:27:30 52° WNW
Cosmos 1980 Rocket 3.5 19:25:18 10° WSW 19:30:23 33° NW 19:31:07 32° NNW
CENTAUR R/B 4.2 20:18:29 10° NW 20:22:42 32° NNW 20:22:42 32° NNW
